Flag for Australia Weather past 2 weeks in Sydney, New South Wales, Australia

Now
66 °F

Passing clouds.


Feels Like: 66 °F
Forecast: 59 / 71 °F
Wind: 14 mph from Southwest

Location: Sydney Airport


UV Index: 5 (Moderate)

Visibility: N/A


Pressure: 30.07 "Hg

Humidity: 64%

Dew point: 54 °F

Location of SydneyLocation

Historic Weather in Sydney

°F

Sydney temperature yesterday

Maximum temperature yesterday: 68 °F (at 11:00 AM)
Minimum temperature yesterday: 57 °F (at 4:00 AM)
Average temperature yesterday: 62 °F

Past Weeks' High & Low Weather Summary

 TemperatureHumidityPressure
High82 °F (Apr 3, 12:00 PM)100% (Apr 11, 1:30 AM)30.27 "Hg (Apr 11, 1:30 AM)
Low57 °F (Apr 14, 6:00 AM)48% (Apr 11, 12:00 PM)29.59 "Hg (Apr 11, 2:00 PM)
Average68 °F76%30.03 "Hg
* Reported Apr 1 8:00 PM — Apr 16 7:30 PM, Sydney, Weather by CustomWeather, © 2014

Note: Actual official high and low records may vary slightly from our data, if they occured in-between our weather recording intervals... More about our weather records

Advertising

Historic Weather Conditions — Data for Previous 24 hours

 ConditionsComfort  
Time TempWeatherWind HumidityBarometerVisibility
7:30 PM
Apr 16
68 °FPassing clouds.16 mph64%30.07 "HgN/A
7:00 PM68 °FPassing clouds.17 mph69%30.07 "HgN/A
6:30 PM68 °FPassing clouds.18 mph69%30.04 "HgN/A
6:00 PM68 °FPassing clouds.17 mph69%30.04 "HgN/A
5:30 PM68 °FPassing clouds.17 mph69%30.04 "HgN/A
5:00 PM68 °FPassing clouds.18 mph64%30.04 "HgN/A
4:30 PM68 °FPassing clouds.20 mph64%30.04 "HgN/A
4:00 PM68 °FPassing clouds.20 mph64%30.04 "HgN/A
3:30 PM68 °FPassing clouds.22 mph73%30.04 "HgN/A
3:00 PM68 °FPassing clouds.22 mph69%30.04 "HgN/A
2:30 PM70 °FScattered clouds.21 mph60%30.04 "HgN/A
2:00 PM70 °FPassing clouds.21 mph64%30.04 "HgN/A
1:30 PM68 °FPassing clouds.18 mph64%30.04 "HgN/A
1:00 PM68 °FScattered clouds.15 mph64%30.04 "HgN/A
12:30 PM68 °FScattered clouds.18 mph64%30.07 "HgN/A
12:00 PM68 °FScattered clouds.20 mph69%30.07 "HgN/A
11:30 AM68 °FScattered clouds.20 mph69%30.09 "HgN/A
11:00 AM68 °FScattered clouds.21 mph64%30.09 "HgN/A
9:00 AM64 °FScattered clouds.15 mph73%30.09 "HgN/A
8:30 AM63 °FScattered clouds.9 mph73%30.09 "HgN/A
8:00 AM63 °FScattered showers. Partly sunny.10 mph73%30.09 "HgN/A
7:30 AM61 °FScattered showers. Partly sunny.15 mph77%30.09 "HgN/A
7:00 AM59 °FScattered clouds.7 mph82%30.09 "HgN/A
6:30 AM59 °FScattered clouds.10 mph82%30.07 "HgN/A
6:00 AM59 °FScattered clouds.9 mph82%30.07 "HgN/A
5:30 AM59 °FScattered clouds.17 mph82%30.07 "HgN/A
5:00 AM59 °FPartly cloudy.16 mph82%30.07 "HgN/A
4:30 AM61 °FPartly cloudy.15 mph77%30.07 "HgN/A
4:00 AM61 °FPassing clouds.13 mph77%30.07 "HgN/A
3:30 AM63 °FPassing clouds.16 mph77%30.07 "HgN/A
3:00 AM63 °FPassing clouds.18 mph77%30.07 "HgN/A
2:30 AM63 °FPassing clouds.16 mph77%30.07 "HgN/A
2:00 AM63 °FPassing clouds.18 mph77%30.07 "HgN/A
1:30 AM63 °FPassing clouds.14 mph83%30.07 "HgN/A
1:00 AM63 °FPassing clouds.16 mph83%30.09 "HgN/A
12:30 AM64 °FPassing clouds.20 mph78%30.09 "HgN/A
12:00 AM61 °FPartly cloudy.14 mph88%30.09 "HgN/A
11:30 PM
Apr 15
61 °FPartly cloudy.9 mph94%30.09 "HgN/A
11:00 PM63 °FSprinkles. Partly cloudy.18 mph88%30.09 "HgN/A
10:30 PM63 °FSprinkles. Partly cloudy.22 mph94%30.09 "Hg4 mi
10:00 PM61 °FSprinkles. Partly cloudy.16 mph100%30.09 "Hg6 mi
9:30 PM64 °FSprinkles. Partly cloudy.20 mph88%30.12 "HgN/A
9:00 PM64 °FSprinkles. Partly cloudy.16 mph83%30.09 "HgN/A
8:30 PM64 °FRain showers. Passing clouds.20 mph88%30.09 "Hg4 mi
8:00 PM64 °FSprinkles. Passing clouds.23 mph88%30.09 "Hg6 mi
Weather by CustomWeather, © 2014

See weather overview